YAOGAN-43 02B

Last updated on Fri Oct 04 2024 00:02:03 GMT+0000 (Coordinated Universal Time)

1 60946U 24156B 24277.36737771 .00040247 00000+0 16556-2 0 9997 2 60946 34.9951 148.8813 0003149 282.8339 77.2023 15.23148870 4580
UTC large
Height (km)
Speed (km/s)
/
Latitude / Longitude
Inclination (degrees)
Orbital Period (minutes)
Azimuth
Elevation
Range (km)
Doppler Factor

Next 0 passes for location: London (51.5072 / 0.1276)

Sorry there are no passes over London.